Time,TemperatureF,DewpointF,PressureIn,WindDirection,WindDirectionDegrees,WindSpeedMPH,WindSpeedGustMPH,Humidity,HourlyPrecipIn,Conditions,Clouds,dailyrainin,SoftwareType,DateUTC
2013-06-15 00:02:00,69.0,62.0,-100.00,NNE,30,0.0,1.0,80,-99.99,,,-99.99,,2013-06-15 05:02:00,
2013-06-15 00:12:00,69.0,62.0,-100.00,SW,230,1.0,2.0,80,-99.99,,,-99.99,,2013-06-15 05:12:00,
2013-06-15 00:22:00,69.0,62.0,-100.00,SW,230,1.0,2.0,80,-99.99,,,-99.99,,2013-06-15 05:22:00,
2013-06-15 00:34:00,69.0,63.0,-100.00,SE,125,0.0,1.0,81,-99.99,,,-99.99,,2013-06-15 05:34:00,
2013-06-15 00:43:00,69.0,64.0,-100.00,ESE,105,0.0,2.0,85,-99.99,,,-99.99,,2013-06-15 05:43:00,
2013-06-15 00:52:00,69.0,64.0,-100.00,ESE,105,0.0,2.0,85,-99.99,,,-99.99,,2013-06-15 05:52:00,
2013-06-15 01:02:00,69.0,64.0,-100.00,SE,125,0.0,1.0,84,-99.99,,,-99.99,,2013-06-15 06:02:00,
2013-06-15 01:12:00,68.0,63.0,-100.00,ESE,120,0.0,0.0,86,-99.99,,,-99.99,,2013-06-15 06:12:00,
2013-06-15 01:24:00,68.0,63.0,-100.00,ESE,120,0.0,0.0,86,-99.99,,,-99.99,,2013-06-15 06:24:00,
2013-06-15 01:33:00,68.0,63.0,-100.00,NE,45,0.0,4.0,85,-99.99,,,-99.99,,2013-06-15 06:33:00,
2013-06-15 01:43:00,69.0,62.0,-100.00,SE,130,0.0,5.0,78,-99.99,,,-99.99,,2013-06-15 06:43:00,
2013-06-15 01:53:00,69.0,62.0,-100.00,SE,130,0.0,5.0,78,-99.99,,,-99.99,,2013-06-15 06:53:00,
2013-06-15 02:01:00,70.0,62.0,-100.00,NNE,15,1.0,2.0,76,-99.99,,,-99.99,,2013-06-15 07:01:00,
2013-06-15 02:11:00,69.0,65.0,-100.00,WSW,255,1.0,2.0,86,-99.99,,,-99.99,,2013-06-15 07:11:00,
2013-06-15 02:23:00,69.0,65.0,-100.00,WSW,255,1.0,2.0,86,-99.99,,,-99.99,,2013-06-15 07:23:00,
2013-06-15 02:33:00,69.0,65.0,-100.00,WSW,255,1.0,2.0,86,-99.99,,,-99.99,,2013-06-15 07:33:00,
2013-06-15 02:43:00,67.0,65.0,-100.00,West,270,0.0,1.0,94,-99.99,,,-99.99,,2013-06-15 07:43:00,
2013-06-15 02:53:00,67.0,65.0,-100.00,West,270,0.0,1.0,94,-99.99,,,-99.99,,2013-06-15 07:53:00,
2013-06-15 03:02:00,67.0,66.0,-100.00,West,280,0.0,4.0,95,-99.99,,,-99.99,,2013-06-15 08:02:00,
2013-06-15 03:11:00,67.0,65.0,-100.00,SW,225,1.0,7.0,94,-99.99,,,-99.99,,2013-06-15 08:11:00,
2013-06-15 03:22:00,67.0,65.0,-100.00,SW,225,1.0,7.0,94,-99.99,,,-99.99,,2013-06-15 08:22:00,
2013-06-15 03:33:00,68.0,65.0,-100.00,NW,305,0.0,6.0,91,-99.99,,,-99.99,,2013-06-15 08:33:00,
2013-06-15 03:42:00,67.0,65.0,-100.00,SSW,205,0.0,5.0,94,-99.99,,,-99.99,,2013-06-15 08:42:00,
2013-06-15 03:53:00,67.0,65.0,-100.00,SSW,205,0.0,5.0,94,-99.99,,,-99.99,,2013-06-15 08:53:00,
2013-06-15 04:02:00,67.0,65.0,-100.00,NW,325,0.0,6.0,95,-99.99,,,-99.99,,2013-06-15 09:02:00,
2013-06-15 04:12:00,66.0,65.0,-100.00,SE,130,3.0,5.0,96,-99.99,,,-99.99,,2013-06-15 09:12:00,
2013-06-15 04:22:00,66.0,65.0,-100.00,SE,130,3.0,5.0,96,-99.99,,,-99.99,,2013-06-15 09:22:00,
2013-06-15 04:33:00,66.0,65.0,-100.00,SE,135,4.0,6.0,97,-99.99,,,-99.99,,2013-06-15 09:33:00,
2013-06-15 04:43:00,66.0,65.0,-100.00,East,90,4.0,9.0,97,-99.99,,,-99.99,,2013-06-15 09:43:00,
2013-06-15 04:52:00,66.0,65.0,-100.00,East,90,4.0,9.0,97,-99.99,,,-99.99,,2013-06-15 09:52:00,
2013-06-15 05:02:00,66.0,65.0,-100.00,ENE,65,0.0,5.0,98,-99.99,,,-99.99,,2013-06-15 10:02:00,
2013-06-15 05:11:00,66.0,66.0,-100.00,ENE,70,3.0,6.0,99,-99.99,,,-99.99,,2013-06-15 10:11:00,
2013-06-15 05:23:00,66.0,66.0,-100.00,ENE,70,3.0,6.0,99,-99.99,,,-99.99,,2013-06-15 10:23:00,
2013-06-15 05:33:00,66.0,65.0,-100.00,ENE,70,3.0,13.0,97,-99.99,,,-99.99,,2013-06-15 10:33:00,
2013-06-15 05:44:00,66.0,65.0,-100.00,NE,45,1.0,8.0,98,-99.99,,,-99.99,,2013-06-15 10:44:00,
2013-06-15 05:53:00,66.0,65.0,-100.00,NE,45,1.0,8.0,98,-99.99,,,-99.99,,2013-06-15 10:53:00,
2013-06-15 06:02:00,66.0,66.0,-100.00,NW,320,3.0,7.0,98,-99.99,,,-99.99,,2013-06-15 11:02:00,
2013-06-15 06:11:00,66.0,65.0,-100.00,NNW,330,2.0,6.0,97,-99.99,,,-99.99,,2013-06-15 11:11:00,
2013-06-15 06:22:00,66.0,65.0,-100.00,NNW,330,2.0,6.0,97,-99.99,,,-99.99,,2013-06-15 11:22:00,
2013-06-15 06:33:00,66.0,66.0,-100.00,NNW,335,0.0,6.0,98,-99.99,,,-99.99,,2013-06-15 11:33:00,
2013-06-15 06:43:00,66.0,65.0,-100.00,North,355,1.0,6.0,97,-99.99,,,-99.99,,2013-06-15 11:43:00,
2013-06-15 06:53:00,66.0,65.0,-100.00,North,355,1.0,6.0,97,-99.99,,,-99.99,,2013-06-15 11:53:00,
2013-06-15 07:01:00,66.0,66.0,-100.00,North,350,1.0,4.0,98,-99.99,,,-99.99,,2013-06-15 12:01:00,
2013-06-15 07:12:00,66.0,65.0,-100.00,South,185,1.0,4.0,98,-99.99,,,-99.99,,2013-06-15 12:12:00,
2013-06-15 07:22:00,66.0,65.0,-100.00,South,185,1.0,4.0,98,-99.99,,,-99.99,,2013-06-15 12:22:00,
2013-06-15 07:33:00,66.0,65.0,-100.00,SE,135,0.0,2.0,98,-99.99,,,-99.99,,2013-06-15 12:33:00,
2013-06-15 07:43:00,66.0,65.0,-100.00,East,100,0.0,4.0,98,-99.99,,,-99.99,,2013-06-15 12:43:00,
2013-06-15 07:52:00,66.0,65.0,-100.00,East,100,0.0,4.0,98,-99.99,,,-99.99,,2013-06-15 12:52:00,
2013-06-15 08:02:00,66.0,65.0,-100.00,ESE,105,1.0,2.0,98,-99.99,,,-99.99,,2013-06-15 13:02:00,
2013-06-15 08:11:00,66.0,66.0,-100.00,ENE,75,0.0,1.0,98,-99.99,,,-99.99,,2013-06-15 13:11:00,
2013-06-15 08:22:00,66.0,66.0,-100.00,ENE,75,0.0,1.0,98,-99.99,,,-99.99,,2013-06-15 13:22:00,
2013-06-15 08:32:00,67.0,66.0,-100.00,East,90,1.0,4.0,97,-99.99,,,-99.99,,2013-06-15 13:32:00,
2013-06-15 08:43:00,67.0,65.0,-100.00,ESE,120,2.0,3.0,94,-99.99,,,-99.99,,2013-06-15 13:43:00,
2013-06-15 08:53:00,67.0,65.0,-100.00,ESE,120,2.0,3.0,94,-99.99,,,-99.99,,2013-06-15 13:53:00,
2013-06-15 09:01:00,68.0,66.0,-100.00,ESE,120,1.0,2.0,94,-99.99,,,-99.99,,2013-06-15 14:01:00,
2013-06-15 09:12:00,69.0,67.0,-100.00,SE,125,2.0,7.0,92,-99.99,,,-99.99,,2013-06-15 14:12:00,
2013-06-15 09:22:00,69.0,67.0,-100.00,SE,125,2.0,7.0,92,-99.99,,,-99.99,,2013-06-15 14:22:00,
2013-06-15 09:34:00,70.0,68.0,-100.00,ESE,110,3.0,7.0,91,-99.99,,,-99.99,,2013-06-15 14:34:00,
2013-06-15 09:43:00,72.0,68.0,-100.00,SE,130,6.0,9.0,87,-99.99,,,-99.99,,2013-06-15 14:43:00,
2013-06-15 09:54:00,72.0,68.0,-100.00,SE,130,6.0,9.0,87,-99.99,,,-99.99,,2013-06-15 14:54:00,
2013-06-15 10:02:00,73.0,67.0,-100.00,SSE,150,6.0,12.0,81,-99.99,,,-99.99,,2013-06-15 15:02:00,
2013-06-15 10:11:00,75.0,67.0,-100.00,SE,125,5.0,10.0,78,-99.99,,,-99.99,,2013-06-15 15:11:00,
2013-06-15 10:22:00,75.0,67.0,-100.00,SE,125,5.0,10.0,78,-99.99,,,-99.99,,2013-06-15 15:22:00,
2013-06-15 10:33:00,73.0,66.0,-100.00,SE,140,6.0,14.0,78,-99.99,,,-99.99,,2013-06-15 15:33:00,
2013-06-15 10:43:00,74.0,66.0,-100.00,SE,125,6.0,11.0,76,-99.99,,,-99.99,,2013-06-15 15:43:00,
2013-06-15 10:53:00,74.0,66.0,-100.00,SE,125,6.0,11.0,76,-99.99,,,-99.99,,2013-06-15 15:53:00,
2013-06-15 11:01:00,76.0,68.0,-100.00,South,170,4.0,8.0,78,-99.99,,,-99.99,,2013-06-15 16:01:00,
2013-06-15 11:11:00,76.0,68.0,-100.00,SE,135,5.0,8.0,75,-99.99,,,-99.99,,2013-06-15 16:11:00,
2013-06-15 11:22:00,76.0,68.0,-100.00,SE,135,5.0,8.0,75,-99.99,,,-99.99,,2013-06-15 16:22:00,
2013-06-15 11:33:00,76.0,67.0,-100.00,SE,135,4.0,8.0,74,-99.99,,,-99.99,,2013-06-15 16:33:00,
2013-06-15 11:43:00,76.0,67.0,-100.00,SE,135,4.0,8.0,74,-99.99,,,-99.99,,2013-06-15 16:43:00,
2013-06-15 11:53:00,76.0,67.0,-100.00,SE,135,4.0,8.0,74,-99.99,,,-99.99,,2013-06-15 16:53:00,
2013-06-15 12:02:00,77.0,66.0,-100.00,SSE,165,5.0,8.0,69,-99.99,,,-99.99,,2013-06-15 17:02:00,
2013-06-15 12:12:00,75.0,66.0,-100.00,South,180,4.0,8.0,72,-99.99,,,-99.99,,2013-06-15 17:12:00,
2013-06-15 12:22:00,75.0,66.0,-100.00,South,180,4.0,8.0,72,-99.99,,,-99.99,,2013-06-15 17:22:00,
2013-06-15 12:32:00,69.0,67.0,-100.00,SE,125,4.0,9.0,96,-99.99,,,-99.99,,2013-06-15 17:32:00,
2013-06-15 12:43:00,70.0,70.0,-100.00,SE,135,4.0,9.0,99,-99.99,,,-99.99,,2013-06-15 17:43:00,
2013-06-15 12:52:00,70.0,70.0,-100.00,SE,135,4.0,9.0,99,-99.99,,,-99.99,,2013-06-15 17:52:00,
2013-06-15 13:01:00,72.0,72.0,-100.00,North,5,1.0,4.0,99,-99.99,,,-99.99,,2013-06-15 18:01:00,
2013-06-15 13:12:00,72.0,71.0,-100.00,SSE,160,0.0,4.0,97,-99.99,,,-99.99,,2013-06-15 18:12:00,
2013-06-15 13:22:00,72.0,71.0,-100.00,SSE,160,0.0,4.0,97,-99.99,,,-99.99,,2013-06-15 18:22:00,
2013-06-15 13:32:00,72.0,71.0,-100.00,SE,130,3.0,7.0,96,-99.99,,,-99.99,,2013-06-15 18:32:00,
2013-06-15 13:43:00,73.0,72.0,-100.00,NNW,345,0.0,2.0,94,-99.99,,,-99.99,,2013-06-15 18:43:00,
2013-06-15 13:53:00,73.0,72.0,-100.00,NNW,345,0.0,2.0,94,-99.99,,,-99.99,,2013-06-15 18:53:00,
2013-06-15 14:01:00,73.0,70.0,-100.00,NE,45,1.0,6.0,92,-99.99,,,-99.99,,2013-06-15 19:01:00,
2013-06-15 14:11:00,74.0,71.0,-100.00,NE,40,1.0,4.0,92,-99.99,,,-99.99,,2013-06-15 19:11:00,
2013-06-15 14:22:00,74.0,71.0,-100.00,NE,40,1.0,4.0,92,-99.99,,,-99.99,,2013-06-15 19:22:00,
2013-06-15 14:33:00,75.0,70.0,-100.00,ESE,120,4.0,6.0,86,-99.99,,,-99.99,,2013-06-15 19:33:00,
2013-06-15 14:43:00,76.0,69.0,-100.00,ESE,120,4.0,7.0,79,-99.99,,,-99.99,,2013-06-15 19:43:00,
2013-06-15 14:53:00,76.0,69.0,-100.00,ESE,120,4.0,7.0,79,-99.99,,,-99.99,,2013-06-15 19:53:00,
2013-06-15 15:02:00,77.0,70.0,-100.00,SSE,150,5.0,13.0,77,-99.99,,,-99.99,,2013-06-15 20:02:00,
2013-06-15 15:11:00,80.0,69.0,-100.00,SSE,165,4.0,8.0,71,-99.99,,,-99.99,,2013-06-15 20:11:00,
2013-06-15 15:22:00,80.0,69.0,-100.00,SSE,165,4.0,8.0,71,-99.99,,,-99.99,,2013-06-15 20:22:00,
2013-06-15 15:33:00,79.0,69.0,-100.00,SE,130,6.0,13.0,71,-99.99,,,-99.99,,2013-06-15 20:33:00,
2013-06-15 15:43:00,79.0,70.0,-100.00,SE,130,6.0,11.0,73,-99.99,,,-99.99,,2013-06-15 20:43:00,
2013-06-15 15:53:00,79.0,70.0,-100.00,SE,130,6.0,11.0,73,-99.99,,,-99.99,,2013-06-15 20:53:00,
2013-06-15 16:01:00,79.0,70.0,-100.00,SE,135,5.0,11.0,74,-99.99,,,-99.99,,2013-06-15 21:01:00,
2013-06-15 16:12:00,79.0,72.0,-100.00,SE,140,3.0,9.0,79,-99.99,,,-99.99,,2013-06-15 21:12:00,
2013-06-15 16:22:00,79.0,72.0,-100.00,SE,140,3.0,9.0,79,-99.99,,,-99.99,,2013-06-15 21:22:00,
2013-06-15 16:33:00,79.0,70.0,-100.00,SE,140,4.0,9.0,75,-99.99,,,-99.99,,2013-06-15 21:33:00,
2013-06-15 16:42:00,78.0,71.0,-100.00,SE,135,3.0,9.0,78,-99.99,,,-99.99,,2013-06-15 21:42:00,
2013-06-15 16:53:00,78.0,71.0,-100.00,SE,135,3.0,9.0,78,-99.99,,,-99.99,,2013-06-15 21:53:00,
2013-06-15 17:01:00,79.0,71.0,-100.00,SE,135,5.0,9.0,77,-99.99,,,-99.99,,2013-06-15 22:01:00,
2013-06-15 17:11:00,80.0,70.0,-100.00,SSE,155,3.0,6.0,74,-99.99,,,-99.99,,2013-06-15 22:11:00,
2013-06-15 17:22:00,80.0,70.0,-100.00,SSE,155,3.0,6.0,74,-99.99,,,-99.99,,2013-06-15 22:22:00,
2013-06-15 17:33:00,80.0,70.0,-100.00,SSE,155,3.0,6.0,74,-99.99,,,-99.99,,2013-06-15 22:33:00,
2013-06-15 17:42:00,77.0,71.0,-100.00,East,80,1.0,4.0,82,-99.99,,,-99.99,,2013-06-15 22:42:00,
2013-06-15 17:53:00,77.0,71.0,-100.00,East,80,1.0,4.0,82,-99.99,,,-99.99,,2013-06-15 22:53:00,
2013-06-15 18:02:00,77.0,71.0,-100.00,SE,135,6.0,9.0,80,-99.99,,,-99.99,,2013-06-15 23:02:00,
2013-06-15 18:12:00,77.0,71.0,-100.00,SE,125,7.0,11.0,81,-99.99,,,-99.99,,2013-06-15 23:12:00,
2013-06-15 18:22:00,77.0,71.0,-100.00,SE,125,7.0,11.0,81,-99.99,,,-99.99,,2013-06-15 23:22:00,
2013-06-15 18:33:00,77.0,71.0,-100.00,SE,140,7.0,16.0,82,-99.99,,,-99.99,,2013-06-15 23:33:00,
2013-06-15 18:42:00,77.0,71.0,-100.00,SE,130,5.0,9.0,82,-99.99,,,-99.99,,2013-06-15 23:42:00,
2013-06-15 18:53:00,77.0,71.0,-100.00,SE,130,5.0,9.0,82,-99.99,,,-99.99,,2013-06-15 23:53:00,
2013-06-15 19:01:00,76.0,71.0,-100.00,SE,145,7.0,12.0,83,-99.99,,,-99.99,,2013-06-16 00:01:00,
2013-06-15 19:11:00,76.0,71.0,-100.00,SSE,165,4.0,15.0,85,-99.99,,,-99.99,,2013-06-16 00:11:00,
2013-06-15 19:22:00,76.0,71.0,-100.00,SSE,165,4.0,15.0,85,-99.99,,,-99.99,,2013-06-16 00:22:00,
2013-06-15 19:34:00,76.0,71.0,-100.00,SSE,165,4.0,15.0,85,-99.99,,,-99.99,,2013-06-16 00:34:00,
2013-06-15 19:43:00,75.0,73.0,-100.00,SSE,150,5.0,11.0,91,-99.99,,,-99.99,,2013-06-16 00:43:00,
2013-06-15 19:52:00,75.0,73.0,-100.00,SSE,150,5.0,11.0,91,-99.99,,,-99.99,,2013-06-16 00:52:00,
2013-06-15 20:01:00,75.0,73.0,-100.00,ESE,115,2.0,8.0,94,-99.99,,,-99.99,,2013-06-16 01:01:00,
2013-06-15 20:11:00,75.0,73.0,-100.00,SE,130,11.0,17.0,94,-99.99,,,-99.99,,2013-06-16 01:11:00,
2013-06-15 20:22:00,75.0,73.0,-100.00,SE,130,11.0,17.0,94,-99.99,,,-99.99,,2013-06-16 01:22:00,
2013-06-15 20:33:00,74.0,71.0,-100.00,West,265,5.0,16.0,92,-99.99,,,-99.99,,2013-06-16 01:33:00,
2013-06-15 20:42:00,74.0,72.0,-100.00,West,270,1.0,7.0,93,-99.99,,,-99.99,,2013-06-16 01:42:00,
2013-06-15 20:53:00,74.0,72.0,-100.00,West,270,1.0,7.0,93,-99.99,,,-99.99,,2013-06-16 01:53:00,
2013-06-15 21:02:00,73.0,70.0,-100.00,West,265,1.0,7.0,90,-99.99,,,-99.99,,2013-06-16 02:02:00,
2013-06-15 21:12:00,72.0,69.0,-100.00,SE,135,4.0,7.0,89,-99.99,,,-99.99,,2013-06-16 02:12:00,
2013-06-15 21:22:00,72.0,69.0,-100.00,SE,135,4.0,7.0,89,-99.99,,,-99.99,,2013-06-16 02:22:00,
2013-06-15 21:33:00,73.0,67.0,-100.00,SSE,150,4.0,9.0,83,-99.99,,,-99.99,,2013-06-16 02:33:00,
2013-06-15 21:43:00,72.0,66.0,-100.00,South,175,3.0,8.0,79,-99.99,,,-99.99,,2013-06-16 02:43:00,
2013-06-15 21:53:00,72.0,66.0,-100.00,South,175,3.0,8.0,79,-99.99,,,-99.99,,2013-06-16 02:53:00,
2013-06-15 22:02:00,73.0,65.0,-100.00,South,175,6.0,21.0,76,-99.99,,,-99.99,,2013-06-16 03:02:00,
2013-06-15 22:12:00,71.0,66.0,-100.00,SSE,165,5.0,13.0,84,-99.99,,,-99.99,,2013-06-16 03:12:00,
2013-06-15 22:22:00,71.0,66.0,-100.00,SSE,165,5.0,13.0,84,-99.99,,,-99.99,,2013-06-16 03:22:00,
2013-06-15 22:33:00,70.0,66.0,-100.00,SSE,155,5.0,12.0,86,-99.99,,,-99.99,,2013-06-16 03:33:00,
2013-06-15 22:43:00,70.0,65.0,-100.00,South,185,5.0,13.0,85,-99.99,,,-99.99,,2013-06-16 03:43:00,
2013-06-15 22:53:00,70.0,65.0,-100.00,South,185,5.0,13.0,85,-99.99,,,-99.99,,2013-06-16 03:53:00,
2013-06-15 23:02:00,70.0,65.0,-100.00,SSE,165,5.0,14.0,85,-99.99,,,-99.99,,2013-06-16 04:02:00,
2013-06-15 23:12:00,69.0,65.0,-100.00,SE,135,6.0,11.0,85,-99.99,,,-99.99,,2013-06-16 04:12:00,
2013-06-15 23:23:00,69.0,65.0,-100.00,SE,135,6.0,11.0,85,-99.99,,,-99.99,,2013-06-16 04:23:00,
2013-06-15 23:33:00,69.0,65.0,-100.00,SSE,155,4.0,13.0,85,-99.99,,,-99.99,,2013-06-16 04:33:00,
2013-06-15 23:42:00,69.0,65.0,-100.00,SSE,160,4.0,11.0,86,-99.99,,,-99.99,,2013-06-16 04:42:00,
2013-06-15 23:53:00,69.0,65.0,-100.00,SSE,160,4.0,11.0,86,-99.99,,,-99.99,,2013-06-16 04:53:00,